QPF
0.00 0.00 0.00 0.00 0.00 0.00 0.00 0.00 0.00 0.00 0.00 0.00 0.00 0.00 0.00 0.00 0.00 0.00 0.00 0.00 0.00 0.00 0.00 0.00 0.00 0.01 0.01 0.02 0.03 0.04 0.06 0.08 0.12 0.14 0.14 0.15 0.15 0.12 0.12 0.12 0.10 0.10 0.11 0.12
0.00 0.00 0.00 0.00 0.00 0.00 0.00 0.00 0.00 0.00 0.00 0.00 0.00 0.00 0.00 0.00 0.00 0.00 0.00 0.00 0.00 0.00 0.00 0.00 0.00 0.01 0.01 0.02 0.04 0.05 0.07 0.10 0.12 0.12 0.12 0.13 0.14 0.10 0.07 0.07 0.07 0.07 0.08 0.08
0.00 0.00 0.00 0.00 0.00 0.00 0.00 0.00 0.00 0.00 0.00 0.00 0.00 0.00 0.00 0.00 0.00 0.00 0.00 0.00 0.00 0.00 0.00 0.00 0.00 0.01 0.02 0.04 0.05 0.08 0.09 0.10 0.12 0.13 0.12 0.10 0.08 0.07 0.06 0.05 0.05 0.06 0.05 0.03
0.00 0.00 0.00 0.00 0.00 0.00 0.00 0.00 0.00 0.00 0.00 0.00 0.00 0.00 0.00 0.00 0.00 0.00 0.00 0.00 0.00 0.00 0.00 0.01 0.01 0.01 0.02 0.02 0.04 0.06 0.11 0.14 0.15 0.16 0.14 0.12 0.09 0.08 0.07 0.06 0.06 0.06 0.04 0.02
0.00 0.00 0.00 0.00 0.00 0.00 0.00 0.00 0.00 0.00 0.00 0.00 0.00 0.00 0.00 0.00 0.00 0.00 0.00 0.00 0.00 0.00 0.00 0.00 0.00 0.01 0.01 0.03 0.04 0.05 0.09 0.11 0.13 0.15 0.17 0.17 0.15 0.11 0.08 0.07 0.06 0.06 0.04 0.01
0.00 0.00 0.01 0.00 0.00 0.00 0.00 0.00 0.00 0.00 0.00 0.00 0.00 0.01 0.00 0.00 0.00 0.00 0.00 0.00 0.00 0.00 0.00 0.00 0.00 0.00 0.01 0.03 0.05 0.06 0.08 0.09 0.12 0.14 0.16 0.19 0.19 0.13 0.09 0.09 0.07 0.05 0.03 0.02
0.00 0.01 0.00 0.00 0.00 0.00 0.01 0.02 0.00 0.00 0.00 0.00 0.00 0.01 0.00 0.00 0.00 0.00 0.00 0.00 0.00 0.00 0.00 0.00 0.00 0.00 0.01 0.02 0.04 0.06 0.07 0.10 0.14 0.15 0.17 0.19 0.19 0.13 0.09 0.08 0.07 0.06 0.04 0.03
0.00 0.01 0.01 0.00 0.00 0.01 0.01 0.01 0.00 0.00 0.00 0.01 0.01 0.00 0.00 0.00 0.00 0.00 0.00 0.01 0.01 0.01 0.00 0.00 0.00 0.00 0.00 0.01 0.03 0.05 0.07 0.11 0.14 0.16 0.13 0.14 0.13 0.11 0.11 0.10 0.07 0.06 0.05 0.04
0.00 0.01 0.01 0.00 0.00 0.00 0.00 0.00 0.00 0.00 0.00 0.01 0.01 0.01 0.01 0.01 0.00 0.00 0.01 0.02 0.02 0.02 0.02 0.02 0.01 0.00 0.00 0.01 0.02 0.04 0.07 0.11 0.13 0.14 0.14 0.16 0.12 0.09 0.08 0.08 0.06 0.04 0.03 0.03
0.01 0.00 0.00 0.00 0.00 0.00 0.00 0.00 0.00 0.00 0.01 0.01 0.01 0.01 0.01 0.01 0.01 0.02 0.02 0.04 0.04 0.04 0.04 0.05 0.04 0.02 0.01 0.01 0.02 0.04 0.07 0.11 0.13 0.13 0.14 0.14 0.14 0.11 0.09 0.07 0.06 0.05 0.03 0.03
0.02 0.01 0.00 0.00 0.00 0.00 0.00 0.00 0.00 0.00 0.00 0.01 0.02 0.02 0.02 0.02 0.03 0.04 0.04 0.06 0.07 0.07 0.08 0.09 0.10 0.08 0.03 0.01 0.02 0.04 0.07 0.10 0.13 0.13 0.14 0.14 0.12 0.12 0.13 0.11 0.06 0.05 0.04 0.03
0.02 0.01 0.02 0.02 0.01 0.00 0.00 0.00 0.00 0.00 0.01 0.02 0.02 0.02 0.02 0.02 0.03 0.04 0.06 0.09 0.11 0.13 0.15 0.18 0.20 0.16 0.07 0.02 0.02 0.03 0.05 0.08 0.10 0.11 0.12 0.11 0.11 0.05 0.03 0.04 0.01 0.01 0.01 0.01
0.02 0.01 0.01 0.01 0.01 0.00 0.00 0.00 0.00 0.00 0.01 0.01 0.02 0.02 0.03 0.03 0.03 0.04 0.06 0.08 0.11 0.15 0.18 0.21 0.22 0.19 0.09 0.03 0.02 0.03 0.04 0.07 0.08 0.08 0.09 0.09 0.08 0.05 0.01 0.00 0.00 0.00 0.00 0.00
0.01 0.01 0.00 0.00 0.00 0.00 0.00 0.00 0.00 0.00 0.01 0.01 0.02 0.02 0.03 0.04 0.05 0.06 0.07 0.08 0.10 0.13 0.16 0.20 0.23 0.23 0.17 0.09 0.04 0.02 0.03 0.05 0.06 0.07 0.07 0.06 0.05 0.04 0.03 0.01 0.00 0.00 0.00 0.00
0.00 0.00 0.00 0.00 0.00 0.00 0.00 0.00 0.00 0.00 0.00 0.01 0.01 0.02 0.03 0.05 0.06 0.07 0.09 0.11 0.13 0.14 0.15 0.20 0.25 0.25 0.22 0.15 0.08 0.04 0.02 0.03 0.02 0.03 0.02 0.02 0.02 0.02 0.02 0.02 0.02 0.02 0.01 0.00
0.00 0.00 0.00 0.00 0.00 0.00 0.00 0.00 0.00 0.00 0.00 0.01 0.01 0.01 0.02 0.04 0.06 0.07 0.09 0.12 0.16 0.18 0.16 0.18 0.23 0.25 0.26 0.20 0.12 0.06 0.03 0.02 0.02 0.02 0.01 0.01 0.01 0.01 0.01 0.02 0.02 0.03 0.02 0.01
0.00 0.00 0.00 0.00 0.00 0.00 0.00 0.00 0.00 0.00 0.01 0.01 0.01 0.01 0.01 0.03 0.05 0.07 0.10 0.12 0.14 0.16 0.17 0.20 0.23 0.27 0.32 0.29 0.18 0.08 0.03 0.01 0.00 0.00 0.00 0.01 0.00 0.00 0.00 0.01 0.01 0.01 0.01 0.01
0.00 0.00 0.00 0.00 0.00 0.00 0.00 0.00 0.00 0.00 0.01 0.01 0.01 0.01 0.02 0.03 0.05 0.07 0.10 0.12 0.14 0.15 0.16 0.19 0.25 0.31 0.34 0.35 0.25 0.11 0.03 0.01 0.00 0.00 0.00 0.00 0.00 0.00 0.00 0.00 0.00 0.00 0.00 0.00
0.00 0.00 0.00 0.00 0.00 0.00 0.00 0.01 0.01 0.01 0.01 0.01 0.02 0.03 0.03 0.04 0.05 0.07 0.09 0.12 0.15 0.17 0.19 0.21 0.28 0.33 0.34 0.35 0.33 0.21 0.06 0.01 0.00 0.00 0.00 0.00 0.00 0.00 0.00 0.00 0.00 0.00 0.00 0.00
0.00 0.00 0.00 0.00 0.00 0.00 0.01 0.01 0.02 0.02 0.02 0.03 0.04 0.05 0.05 0.05 0.06 0.07 0.09 0.12 0.14 0.18 0.24 0.28 0.26 0.26 0.32 0.36 0.34 0.23 0.10 0.02 0.01 0.00 0.00 0.00 0.00 0.00 0.00 0.00 0.00 0.00 0.00 0.00
0.00 0.00 0.00 0.00 0.00 0.01 0.01 0.02 0.04 0.05 0.05 0.05 0.07 0.07 0.06 0.05 0.06 0.07 0.10 0.10 0.12 0.17 0.22 0.26 0.24 0.22 0.25 0.35 0.35 0.22 0.10 0.04 0.02 0.01 0.00 0.00 0.00 0.00 0.00 0.00 0.00 0.00 0.00 0.00
0.00 0.00 0.00 0.00 0.01 0.01 0.02 0.04 0.06 0.07 0.07 0.07 0.07 0.07 0.07 0.07 0.07 0.07 0.08 0.09 0.11 0.15 0.19 0.22 0.23 0.24 0.25 0.29 0.28 0.21 0.10 0.04 0.02 0.01 0.01 0.00 0.00 0.00 0.00 0.00 0.00 0.00 0.00 0.00
0.00 0.00 0.00 0.01 0.02 0.02 0.03 0.04 0.06 0.08 0.10 0.11 0.11 0.11 0.10 0.10 0.09 0.09 0.06 0.06 0.10 0.12 0.15 0.20 0.23 0.24 0.21 0.19 0.20 0.16 0.09 0.04 0.03 0.01 0.01 0.00 0.00 0.00 0.00 0.00 0.00 0.00 0.00 0.00
0.00 0.00 0.00 0.01 0.02 0.04 0.05 0.06 0.07 0.09 0.10 0.11 0.11 0.11 0.13 0.13 0.11 0.08 0.06 0.05 0.05 0.07 0.10 0.14 0.16 0.15 0.12 0.11 0.13 0.12 0.07 0.04 0.03 0.02 0.01 0.00 0.00 0.00 0.00 0.00 0.00 0.00 0.00 0.00
0.00 0.00 0.01 0.02 0.04 0.06 0.08 0.10 0.10 0.10 0.12 0.13 0.11 0.11 0.12 0.13 0.12 0.09 0.06 0.05 0.05 0.04 0.06 0.09 0.10 0.09 0.07 0.06 0.07 0.07 0.05 0.03 0.03 0.03 0.01 0.00 0.00 0.00 0.00 0.00 0.00 0.00 0.00 0.00
0.00 0.00 0.01 0.02 0.04 0.07 0.10 0.13 0.15 0.17 0.21 0.23 0.20 0.16 0.14 0.13 0.11 0.10 0.07 0.04 0.04 0.03 0.04 0.06 0.06 0.06 0.05 0.05 0.05 0.04 0.03 0.02 0.02 0.02 0.01 0.01 0.00 0.00 0.00 0.00 0.00 0.00 0.00 0.00
0.00 0.01 0.01 0.02 0.03 0.05 0.08 0.12 0.17 0.22 0.29 0.34 0.33 0.26 0.21 0.17 0.14 0.10 0.07 0.05 0.04 0.03 0.03 0.04 0.04 0.04 0.04 0.04 0.03 0.03 0.02 0.02 0.01 0.01 0.00 0.00 0.00 0.00 0.00 0.00 0.00 0.00 0.00 0.00
MSLP
1011.57 1011.28 1010.95 1010.63 1010.34 1010.09 1009.86 1009.63 1009.38 1009.07 1008.69 1008.22 1007.70 1007.16 1006.63 1006.16 1005.80 1005.58 1005.51 1005.59 1005.81 1006.13 1006.52 1006.94 1007.36 1007.74 1008.06 1008.31 1008.48 1008.57 1008.61 1008.59 1008.55 1008.50 1008.46 1008.44 1008.44 1008.48 1008.56 1008.66 1008.77 1008.90 1009.04 1009.18
1011.46 1011.14 1010.75 1010.35 1009.98 1009.64 1009.36 1009.10 1008.86 1008.60 1008.30 1007.94 1007.53 1007.08 1006.62 1006.18 1005.80 1005.52 1005.36 1005.32 1005.43 1005.64 1005.95 1006.33 1006.73 1007.13 1007.50 1007.83 1008.09 1008.28 1008.42 1008.51 1008.57 1008.60 1008.64 1008.68 1008.75 1008.83 1008.94 1009.06 1009.19 1009.33 1009.47 1009.62
1011.25 1010.98 1010.64 1010.26 1009.90 1009.57 1009.29 1009.05 1008.83 1008.62 1008.39 1008.10 1007.76 1007.35 1006.91 1006.46 1006.02 1005.64 1005.35 1005.17 1005.11 1005.18 1005.36 1005.64 1005.99 1006.37 1006.75 1007.13 1007.46 1007.76 1008.00 1008.20 1008.37 1008.52 1008.65 1008.78 1008.92 1009.06 1009.21 1009.36 1009.52 1009.67 1009.83 1009.99
1011.09 1010.95 1010.73 1010.48 1010.21 1009.96 1009.74 1009.55 1009.38 1009.21 1009.01 1008.75 1008.42 1008.01 1007.54 1007.02 1006.49 1005.97 1005.52 1005.16 1004.92 1004.81 1004.83 1004.97 1005.21 1005.53 1005.89 1006.28 1006.67 1007.04 1007.39 1007.70 1007.99 1008.25 1008.49 1008.71 1008.93 1009.13 1009.33 1009.52 1009.71 1009.88 1010.06 1010.23
1011.13 1011.18 1011.15 1011.08 1010.96 1010.84 1010.71 1010.58 1010.45 1010.29 1010.08 1009.80 1009.44 1008.98 1008.44 1007.82 1007.17 1006.51 1005.89 1005.34 1004.90 1004.59 1004.42 1004.39 1004.49 1004.71 1005.01 1005.38 1005.79 1006.21 1006.64 1007.05 1007.44 1007.82 1008.16 1008.48 1008.78 1009.05 1009.30 1009.53 1009.74 1009.94 1010.14 1010.34
1011.51 1011.76 1011.95 1012.06 1012.12 1012.12 1012.07 1011.99 1011.86 1011.68 1011.42 1011.09 1010.65 1010.11 1009.47 1008.74 1007.97 1007.17 1006.38 1005.65 1005.03 1004.52 1004.16 1003.95 1003.90 1003.99 1004.20 1004.52 1004.91 1005.36 1005.83 1006.32 1006.81 1007.27 1007.72 1008.12 1008.49 1008.83 1009.13 1009.39 1009.64 1009.87 1010.09 1010.33
1012.28 1012.73 1013.09 1013.37 1013.54 1013.62 1013.62 1013.53 1013.36 1013.11 1012.78 1012.35 1011.81 1011.18 1010.44 1009.62 1008.74 1007.83 1006.92 1006.05 1005.26 1004.59 1004.06 1003.68 1003.46 1003.41 1003.52 1003.75 1004.10 1004.54 1005.04 1005.58 1006.13 1006.67 1007.19 1007.68 1008.11 1008.51 1008.85 1009.16 1009.44 1009.70 1009.96 1010.22
1013.42 1013.99 1014.46 1014.82 1015.04 1015.13 1015.10 1014.94 1014.68 1014.33 1013.87 1013.33 1012.70 1011.97 1011.16 1010.28 1009.34 1008.36 1007.38 1006.42 1005.53 1004.74 1004.07 1003.54 1003.19 1003.00 1002.98 1003.12 1003.41 1003.81 1004.31 1004.86 1005.45 1006.05 1006.64 1007.18 1007.68 1008.13 1008.52 1008.87 1009.19 1009.48 1009.78 1010.08
1014.78 1015.39 1015.88 1016.21 1016.39 1016.39 1016.25 1015.97 1015.57 1015.07 1014.49 1013.84 1013.12 1012.33 1011.49 1010.59 1009.64 1008.66 1007.67 1006.69 1005.76 1004.89 1004.13 1003.50 1003.03 1002.72 1002.59 1002.64 1002.84 1003.19 1003.66 1004.21 1004.82 1005.45 1006.08 1006.67 1007.23 1007.73 1008.17 1008.57 1008.93 1009.27 1009.60 1009.94
1016.17 1016.72 1017.11 1017.32 1017.35 1017.19 1016.87 1016.41 1015.85 1015.20 1014.50 1013.76 1012.98 1012.18 1011.35 1010.49 1009.60 1008.68 1007.74 1006.79 1005.87 1004.99 1004.19 1003.50 1002.94 1002.54 1002.31 1002.26 1002.38 1002.67 1003.09 1003.62 1004.22 1004.87 1005.53 1006.17 1006.77 1007.32 1007.81 1008.26 1008.67 1009.06 1009.43 1009.82
1017.36 1017.74 1017.95 1017.95 1017.76 1017.38 1016.85 1016.20 1015.48 1014.70 1013.90 1013.11 1012.32 1011.55 1010.78 1010.01 1009.22 1008.40 1007.56 1006.70 1005.84 1004.99 1004.20 1003.48 1002.87 1002.40 1002.09 1001.96 1002.00 1002.22 1002.58 1003.08 1003.66 1004.30 1004.98 1005.64 1006.29 1006.89 1007.44 1007.94 1008.41 1008.85 1009.28 1009.70
1018.13 1018.29 1018.25 1018.00 1017.56 1016.95 1016.22 1015.40 1014.54 1013.68 1012.84 1012.04 1011.30 1010.59 1009.92 1009.26 1008.59 1007.91 1007.19 1006.43 1005.65 1004.86 1004.10 1003.38 1002.75 1002.24 1001.87 1001.68 1001.65 1001.80 1002.11 1002.55 1003.10 1003.73 1004.40 1005.08 1005.76 1006.40 1007.01 1007.57 1008.10 1008.60 1009.08 1009.55
1018.41 1018.31 1018.00 1017.50 1016.82 1016.02 1015.12 1014.19 1013.26 1012.37 1011.55 1010.79 1010.12 1009.51 1008.95 1008.41 1007.87 1007.30 1006.69 1006.03 1005.33 1004.61 1003.88 1003.19 1002.56 1002.02 1001.62 1001.37 1001.29 1001.37 1001.62 1002.01 1002.51 1003.11 1003.76 1004.45 1005.14 1005.82 1006.48 1007.10 1007.70 1008.26 1008.80 1009.31
1018.18 1017.83 1017.28 1016.56 1015.70 1014.76 1013.79 1012.82 1011.89 1011.04 1010.27 1009.61 1009.03 1008.52 1008.06 1007.62 1007.17 1006.68 1006.15 1005.56 1004.91 1004.24 1003.54 1002.87 1002.25 1001.71 1001.29 1001.00 1000.88 1000.91 1001.09 1001.42 1001.87 1002.42 1003.04 1003.72 1004.41 1005.12 1005.81 1006.49 1007.15 1007.78 1008.38 1008.94
1017.55 1016.97 1016.23 1015.36 1014.41 1013.42 1012.44 1011.51 1010.66 1009.90 1009.24 1008.67 1008.19 1007.77 1007.38 1006.99 1006.57 1006.12 1005.60 1005.03 1004.41 1003.75 1003.08 1002.43 1001.82 1001.29 1000.86 1000.56 1000.40 1000.38 1000.51 1000.78 1001.16 1001.66 1002.23 1002.87 1003.56 1004.27 1004.99 1005.72 1006.43 1007.12 1007.79 1008.41
1016.65 1015.92 1015.06 1014.11 1013.14 1012.19 1011.28 1010.46 1009.73 1009.10 1008.56 1008.09 1007.69 1007.31 1006.94 1006.54 1006.10 1005.62 1005.07 1004.47 1003.83 1003.17 1002.50 1001.86 1001.27 1000.76 1000.34 1000.03 999.85 999.81 999.89 1000.09 1000.41 1000.84 1001.36 1001.95 1002.61 1003.31 1004.04 1004.80 1005.56 1006.30 1007.03 1007.71
1015.66 1014.82 1013.91 1012.97 1012.05 1011.19 1010.42 1009.74 1009.16 1008.66 1008.24 1007.85 1007.49 1007.11 1006.70 1006.24 1005.73 1005.15 1004.53 1003.86 1003.17 1002.49 1001.82 1001.19 1000.63 1000.14 999.75 999.46 999.28 999.21 999.26 999.40 999.66 1000.01 1000.46 1001.00 1001.61 1002.28 1003.01 1003.78 1004.57 1005.36 1006.14 1006.87
1014.68 1013.80 1012.89 1012.01 1011.19 1010.46 1009.84 1009.33 1008.89 1008.52 1008.18 1007.84 1007.47 1007.04 1006.55 1005.99 1005.36 1004.67 1003.94 1003.18 1002.44 1001.72 1001.06 1000.46 999.94 999.50 999.15 998.89 998.73 998.65 998.66 998.76 998.96 999.24 999.61 1000.08 1000.64 1001.27 1001.98 1002.75 1003.55 1004.36 1005.17 1005.95
1013.80 1012.91 1012.04 1011.25 1010.55 1009.96 1009.49 1009.11 1008.80 1008.51 1008.21 1007.88 1007.46 1006.96 1006.36 1005.67 1004.91 1004.09 1003.26 1002.43 1001.64 1000.92 1000.27 999.71 999.25 998.87 998.58 998.37 998.24 998.16 998.16 998.22 998.36 998.57 998.88 999.28 999.77 1000.36 1001.03 1001.77 1002.57 1003.39 1004.20 1004.99
1013.00 1012.13 1011.32 1010.61 1010.03 1009.57 1009.21 1008.93 1008.69 1008.45 1008.16 1007.79 1007.31 1006.71 1006.00 1005.19 1004.31 1003.40 1002.48 1001.61 1000.81 1000.10 999.50 999.01 998.62 998.32 998.10 997.95 997.85 997.79 997.78 997.81 997.90 998.06 998.30 998.63 999.06 999.60 1000.22 1000.93 1001.69 1002.49 1003.29 1004.06
1012.24 1011.41 1010.66 1010.03 1009.53 1009.16 1008.87 1008.65 1008.44 1008.19 1007.87 1007.45 1006.89 1006.20 1005.39 1004.50 1003.54 1002.57 1001.63 1000.76 999.99 999.33 998.80 998.39 998.09 997.88 997.73 997.64 997.58 997.54 997.52 997.53 997.58 997.69 997.87 998.15 998.52 999.00 999.58 1000.24 1000.96 1001.71 1002.47 1003.20
1011.50 1010.70 1010.00 1009.43 1008.98 1008.65 1008.39 1008.18 1007.95 1007.67 1007.30 1006.81 1006.18 1005.42 1004.56 1003.61 1002.63 1001.66 1000.74 999.91 999.20 998.63 998.19 997.88 997.67 997.54 997.46 997.42 997.39 997.36 997.34 997.34 997.36 997.43 997.57 997.80 998.13 998.56 999.08 999.69 1000.35 1001.05 1001.74 1002.41
1010.76 1009.99 1009.33 1008.78 1008.36 1008.03 1007.76 1007.51 1007.24 1006.90 1006.47 1005.91 1005.23 1004.42 1003.53 1002.58 1001.62 1000.69 999.84 999.09 998.48 998.00 997.66 997.44 997.32 997.26 997.24 997.23 997.22 997.20 997.18 997.15 997.15 997.20 997.31 997.51 997.80 998.20 998.68 999.23 999.84 1000.47 1001.10 1001.68
1010.06 1009.31 1008.67 1008.14 1007.71 1007.35 1007.04 1006.73 1006.38 1005.97 1005.46 1004.85 1004.12 1003.29 1002.40 1001.48 1000.57 999.72 998.95 998.31 997.80 997.42 997.17 997.03 996.97 996.96 996.98 996.99 996.99 996.97 996.93 996.90 996.89 996.92 997.02 997.20 997.47 997.84 998.29 998.81 999.37 999.94 1000.50 1001.01
1009.45 1008.74 1008.12 1007.58 1007.11 1006.71 1006.32 1005.93 1005.50 1005.00 1004.41 1003.73 1002.96 1002.12 1001.25 1000.37 999.53 998.75 998.08 997.53 997.11 996.82 996.65 996.57 996.55 996.56 996.59 996.61 996.60 996.57 996.53 996.50 996.48 996.52 996.61 996.80 997.07 997.43 997.87 998.36 998.88 999.41 999.92 1000.38
1009.04 1008.36 1007.74 1007.19 1006.68 1006.20 1005.73 1005.24 1004.70 1004.10 1003.42 1002.67 1001.86 1001.00 1000.14 999.29 998.50 997.79 997.19 996.71 996.36 996.14 996.01 995.96 995.96 995.99 996.01 996.03 996.02 995.99 995.95 995.92 995.92 995.97 996.08 996.29 996.57 996.94 997.37 997.86 998.36 998.87 999.35 999.78
1008.88 1008.23 1007.61 1007.03 1006.47 1005.92 1005.34 1004.74 1004.08 1003.37 1002.59 1001.75 1000.87 999.98 999.09 998.25 997.48 996.81 996.25 995.82 995.51 995.31 995.21 995.17 995.18 995.21 995.24 995.25 995.25 995.23 995.21 995.20 995.23 995.32 995.47 995.70 996.01 996.40 996.84 997.33 997.84 998.34 998.82 999.26
Thickness
5739 5745 5747 5746 5747 5750 5743 5739 5727 5730 5732 5740 5744 5742 5741 5738 5733 5728 5723 5718 5713 5706 5700 5694 5689 5684 5680 5676 5673 5669 5664 5659 5654 5650 5645 5640 5636 5632 5629 5627 5626 5625 5625 5627
5731 5741 5745 5744 5750 5751 5747 5744 5737 5732 5729 5740 5740 5737 5732 5729 5724 5719 5715 5713 5709 5704 5697 5691 5685 5679 5675 5671 5667 5663 5658 5653 5650 5645 5640 5635 5631 5627 5624 5622 5621 5620 5620 5621
5721 5735 5735 5729 5746 5746 5741 5738 5726 5711 5713 5722 5719 5716 5716 5717 5715 5712 5710 5708 5704 5700 5694 5688 5683 5677 5671 5667 5663 5658 5654 5650 5646 5641 5636 5632 5629 5624 5620 5618 5617 5616 5615 5614
5715 5717 5702 5735 5755 5748 5735 5721 5712 5706 5704 5703 5701 5704 5709 5709 5701 5700 5700 5700 5698 5695 5690 5685 5681 5675 5670 5664 5659 5655 5651 5647 5644 5639 5634 5629 5625 5621 5618 5616 5614 5613 5612 5610
5709 5706 5716 5732 5728 5726 5715 5699 5689 5688 5686 5687 5690 5691 5695 5696 5690 5687 5687 5689 5690 5690 5686 5681 5676 5671 5666 5660 5656 5652 5649 5646 5643 5638 5633 5627 5623 5619 5617 5614 5611 5610 5608 5606
5704 5692 5687 5694 5711 5719 5710 5687 5671 5670 5666 5666 5667 5657 5664 5673 5674 5675 5677 5679 5681 5683 5682 5676 5672 5667 5660 5656 5653 5649 5648 5646 5643 5638 5632 5627 5622 5618 5615 5613 5610 5608 5605 5604
5693 5687 5694 5680 5694 5698 5668 5645 5653 5653 5650 5647 5641 5639 5646 5653 5656 5660 5663 5668 5671 5673 5673 5672 5668 5662 5656 5652 5649 5649 5648 5645 5641 5637 5632 5627 5621 5617 5614 5611 5608 5605 5603 5601
5696 5682 5666 5661 5665 5643 5628 5632 5632 5631 5629 5627 5627 5630 5632 5634 5637 5641 5646 5652 5657 5658 5661 5666 5664 5657 5651 5648 5648 5647 5645 5642 5638 5634 5631 5627 5620 5616 5613 5609 5606 5603 5600 5599
5686 5658 5639 5638 5630 5621 5618 5614 5612 5610 5610 5609 5608 5610 5612 5613 5616 5620 5625 5630 5636 5640 5647 5653 5657 5653 5647 5646 5645 5643 5640 5638 5635 5632 5629 5625 5619 5615 5611 5607 5605 5602 5599 5597
5670 5641 5634 5623 5616 5609 5604 5599 5598 5595 5593 5592 5590 5592 5593 5595 5598 5601 5605 5609 5615 5621 5628 5637 5643 5646 5646 5644 5642 5638 5635 5633 5631 5628 5625 5622 5618 5615 5611 5608 5605 5603 5601 5599
5645 5624 5621 5616 5605 5598 5593 5589 5585 5582 5579 5576 5574 5575 5575 5576 5579 5582 5586 5590 5594 5600 5608 5619 5626 5635 5640 5640 5637 5634 5631 5629 5627 5625 5622 5619 5616 5614 5612 5610 5609 5605 5604 5603
5610 5599 5592 5591 5588 5582 5576 5573 5570 5567 5565 5562 5557 5556 5556 5558 5561 5564 5568 5573 5577 5585 5591 5601 5611 5619 5630 5634 5633 5629 5626 5625 5623 5622 5620 5617 5614 5608 5602 5605 5604 5605 5606 5606
5592 5587 5580 5576 5572 5568 5565 5563 5561 5556 5551 5547 5546 5542 5540 5541 5545 5547 5551 5556 5560 5568 5576 5585 5594 5605 5618 5627 5628 5625 5624 5623 5621 5620 5618 5615 5613 5609 5603 5596 5595 5598 5600 5601
5584 5576 5570 5568 5566 5563 5558 5555 5551 5547 5542 5537 5533 5530 5528 5527 5529 5532 5536 5541 5547 5554 5562 5570 5580 5593 5604 5615 5620 5621 5620 5619 5618 5618 5617 5615 5613 5611 5608 5603 5598 5595 5591 5591
5577 5570 5565 5563 5560 5556 5551 5546 5541 5538 5534 5530 5525 5521 5518 5516 5516 5519 5523 5528 5535 5542 5551 5558 5567 5579 5589 5602 5611 5615 5616 5617 5617 5617 5617 5615 5614 5612 5610 5607 5604 5599 5591 5581
5571 5567 5562 5556 5551 5546 5542 5537 5532 5529 5525 5522 5518 5514 5511 5509 5510 5511 5514 5518 5523 5531 5539 5547 5556 5567 5578 5590 5602 5609 5612 5613 5614 5615 5615 5614 5614 5613 5611 5608 5605 5601 5595 5587
5560 5555 5550 5544 5540 5536 5531 5526 5523 5520 5517 5514 5510 5508 5505 5503 5504 5505 5507 5510 5516 5523 5531 5539 5548 5557 5568 5579 5591 5603 5608 5609 5609 5610 5612 5613 5612 5612 5610 5608 5605 5602 5598 5592
5550 5543 5537 5531 5528 5525 5523 5520 5516 5512 5508 5505 5502 5500 5497 5495 5496 5498 5501 5505 5510 5518 5526 5534 5542 5549 5559 5570 5583 5596 5605 5609 5607 5608 5609 5609 5609 5609 5608 5607 5605 5602 5599 5592
5540 5533 5528 5524 5521 5518 5516 5513 5510 5507 5503 5499 5494 5492 5490 5490 5491 5493 5496 5500 5505 5513 5522 5529 5535 5542 5552 5563 5575 5588 5599 5606 5606 5605 5606 5606 5605 5606 5606 5605 5604 5603 5600 5593
5530 5525 5521 5518 5516 5514 5511 5509 5506 5503 5498 5493 5489 5486 5485 5486 5486 5488 5491 5496 5502 5510 5518 5524 5531 5538 5548 5558 5568 5582 5594 5603 5606 5604 5603 5604 5603 5603 5603 5603 5603 5602 5599 5594
5522 5518 5515 5513 5512 5511 5509 5506 5503 5500 5496 5491 5486 5483 5482 5482 5483 5484 5487 5494 5502 5508 5515 5520 5526 5534 5543 5552 5562 5575 5588 5598 5603 5604 5603 5602 5602 5601 5601 5601 5601 5600 5598 5595
5515 5513 5511 5510 5510 5510 5509 5506 5503 5498 5494 5490 5486 5482 5480 5481 5482 5483 5487 5492 5499 5504 5512 5520 5525 5531 5537 5545 5558 5571 5583 5593 5600 5602 5602 5602 5601 5600 5600 5600 5600 5599 5598 5596
5511 5510 5510 5509 5509 5509 5509 5507 5503 5497 5493 5489 5486 5483 5481 5480 5480 5481 5487 5494 5498 5502 5509 5518 5524 5528 5533 5543 5555 5567 5578 5588 5595 5599 5601 5601 5601 5601 5600 5600 5600 5600 5598 5596
5510 5510 5509 5509 5509 5509 5508 5507 5503 5498 5494 5490 5487 5484 5482 5482 5484 5486 5489 5493 5495 5499 5508 5516 5520 5526 5532 5543 5554 5565 5575 5584 5591 5596 5599 5601 5602 5602 5601 5601 5600 5600 5598 5596
5509 5507 5508 5507 5506 5507 5506 5505 5503 5499 5495 5491 5489 5488 5486 5484 5485 5488 5491 5494 5497 5500 5508 5516 5519 5525 5534 5545 5553 5563 5572 5581 5587 5592 5596 5599 5601 5602 5601 5600 5600 5599 5597 5596
5506 5505 5504 5503 5502 5502 5503 5500 5498 5496 5493 5492 5491 5490 5489 5489 5490 5492 5494 5497 5501 5504 5510 5518 5524 5527 5536 5545 5554 5563 5571 5578 5584 5588 5594 5597 5600 5601 5601 5601 5600 5599 5597 5596
5503 5502 5501 5501 5502 5501 5499 5497 5495 5495 5493 5490 5490 5491 5491 5492 5493 5495 5497 5499 5504 5509 5514 5521 5528 5534 5540 5548 5556 5563 5571 5578 5584 5589 5594 5597 5598 5599 5600 5599 5599 5598 5597 5595